Powrót do katalogu

ATLAS 5 CENTAUR DEB

AktywnyHEO
NORAD 44896·DEBRIS·🇺🇸 United States

Wystrzelony Oct 17, 2018 z Cape Canaveral Space Force Station

Loading…

Następne Przeloty (najbliższe 24 godziny)

TLE

Starzejące sięSource: Space-Track

Epoka: Aug 28, 2026, 21:38 UTC

1 44896U 18079BK  26240.90150107 -.00000082  00000-0  00000-0 0  9994
2 44896  13.4465 337.0674 4626316  76.1624 329.6406  2.00757123 49167

Śledź ATLAS 5 CENTAUR DEB w czasie rzeczywistym z AllMySat

Download on the App Store